sat.trackr.live / text

‹ back to catalog

SYRACUSE 4A

NORAD 49333 · 2021-095B

PAYLOAD ACTIVE UNKNOWN

§ Identity

Operator
Country
FR
Launch date
2021-10-24
Launch site
FRGUI
Launch vehicle
Mass (kg)
RCS (m²)

Purposes: comms

External: N2YO · Heavens-Above · Gunter

§ Orbital elements

Epoch: 2026-05-24T17:41:33.273888Z

Period
1,436.11 min
Inclination
0.0114°
Eccentricity
0.0001482
Mean motion
1.00271121 rev/d
Perigee alt
35,780.5 km
Apogee alt
35,793.0 km
Semi-major
42,164.9 km
B*
0.0000e+0
RAAN
335.8092°
Arg perigee
84.9093°
Mean anomaly
132.4993°
Rev number
1,771

§ Raw data

SYRACUSE 4A1 49333U 21095B   26144.73719067  .00000131  00000+0  00000+0 0  99992 49333   0.0114 335.8092 0001482  84.9093 132.4993  1.00271121 17710

JSON: /api/v1/satellites/49333 · /tle

For live sub-satellite position, see the globe view (requires WebGL).

§ Visibility from observer

Set your observer location to see the next 7 days of passes ≥ 10°. The values pass through the URL so the page stays shareable.

No JS? Fill the form by hand. The geolocation button needs JavaScript.